Flag for Greece Weather past 2 weeks in Iráklion, Crete, Greece

Now
70 °F

Passing clouds.


Feels Like: 70 °F
Forecast: 60 / 77 °F
Wind: 5 mph from Southeast

Location: Heraklion Airport

Current Time: May 23, 2015 at 4:47:05 AM

Latest Report: May 23, 2015 at 3:50 AM


Visibility: N/A

Pressure: 29.83 "Hg

Humidity: 73%

Dew point: 61 °F

Location of IráklionLocation

Historic Weather in Iráklion — Graph

°F

Iráklion temperature yesterday

Maximum temperature yesterday: 77 °F (at 11:50 AM)
Minimum temperature yesterday: 64 °F (at 12:50 AM)
Average temperature yesterday: 70 °F

Past Weeks' High & Low Weather Summary

 TemperatureHumidityPressure
High82 °F (May 19, 10:20 AM)94% (May 17, 9:50 PM)30.12 "Hg (May 17, 9:50 PM)
Low55 °F (May 14, 5:50 AM)20% (May 19, 10:20 AM)29.77 "Hg (May 8, 3:50 AM)
Average68 °F68%29.92 "Hg
* Reported May 8 3:50 AM — May 23 3:50 AM, Iráklion, Weather by CustomWeather, © 2015

Note: Actual official high and low records may vary slightly from our data, if they occured in-between our weather recording intervals... More about our weather records

Advertising

Iráklion weather history for previous 24 hours

 ConditionsComfort  
Time TempWeatherWind HumidityBarometerVisibility
3:50 AM
Sat, May 23
70 °FPassing clouds.5 mph73%29.83 "HgN/A
3:20 AM75 °FPassing clouds.6 mph65%29.80 "HgN/A
2:50 AM70 °FPassing clouds.2 mph73%29.83 "HgN/A
2:20 AM70 °FPassing clouds.2 mph78%29.86 "HgN/A
1:50 AM70 °FPassing clouds.2 mph78%29.86 "HgN/A
1:20 AM70 °FPassing clouds.3 mph78%29.86 "HgN/A
12:50 AM70 °FPassing clouds.6 mph78%29.86 "HgN/A
11:50 PM
Fri, May 22
70 °FPassing clouds.2 mph78%29.92 "HgN/A
11:20 PM70 °FPassing clouds.3 mph78%29.92 "HgN/A
10:50 PM70 °FPassing clouds.3 mph78%29.92 "HgN/A
10:20 PM70 °FPassing clouds.2 mph83%29.92 "HgN/A
9:50 PM70 °FPassing clouds.2 mph83%29.92 "HgN/A
9:20 PM70 °FBroken clouds.3 mph83%29.89 "HgN/A
8:50 PM70 °FBroken clouds.3 mph83%29.89 "HgN/A
8:20 PM72 °FBroken clouds.3 mph83%29.89 "HgN/A
7:50 PM72 °FBroken clouds.5 mph83%29.89 "HgN/A
7:20 PM73 °FBroken clouds.2 mph74%29.92 "HgN/A
6:50 PM73 °FBroken clouds.2 mph74%29.92 "HgN/A
6:20 PM75 °FScattered clouds.3 mph61%29.92 "HgN/A
5:50 PM75 °FScattered clouds.5 mph61%29.92 "HgN/A
5:20 PM75 °FScattered clouds.7 mph61%29.89 "HgN/A
4:50 PM75 °FScattered clouds.10 mph61%29.89 "HgN/A
4:20 PM75 °FScattered clouds.10 mph65%29.92 "HgN/A
3:50 PM75 °FScattered clouds.7 mph65%29.92 "HgN/A
3:20 PM75 °FScattered clouds.2 mph65%29.92 "HgN/A
2:50 PM75 °FBroken clouds.5 mph65%29.92 "HgN/A
2:20 PM73 °FBroken clouds.5 mph65%29.92 "HgN/A
1:50 PM73 °FScattered clouds.7 mph65%29.92 "HgN/A
1:20 PM77 °FPassing clouds.5 mph47%29.95 "HgN/A
12:50 PM77 °FPassing clouds.5 mph47%29.95 "HgN/A
12:20 PM77 °FPassing clouds.6 mph47%29.95 "HgN/A
11:50 AM77 °FPassing clouds.3 mph47%29.95 "HgN/A
11:20 AM75 °FScattered clouds.6 mph54%29.95 "HgN/A
10:50 AM75 °FScattered clouds.No wind54%29.95 "HgN/A
10:20 AM73 °FBroken clouds.3 mph53%29.95 "HgN/A
9:50 AM73 °FScattered clouds.3 mph53%29.95 "HgN/A
9:20 AM70 °FScattered clouds.3 mph64%29.95 "HgN/A
8:50 AM70 °FScattered clouds.No wind64%29.95 "HgN/A
8:20 AM68 °FScattered clouds.3 mph64%29.92 "HgN/A
7:50 AM68 °FScattered clouds.3 mph64%29.92 "HgN/A
7:20 AM66 °FBroken clouds.6 mph60%29.92 "HgN/A
6:50 AM66 °FPassing clouds.6 mph60%29.92 "HgN/A
6:20 AM64 °FClear.6 mph68%29.92 "Hg10 mi
5:50 AM64 °FClear.3 mph68%29.92 "Hg10 mi
5:20 AM64 °FClear.7 mph68%29.92 "Hg10 mi
4:50 AM64 °FClear.8 mph68%29.92 "Hg10 mi
4:20 AM64 °FClear.7 mph68%29.92 "Hg10 mi
Weather by CustomWeather, © 2015

See weather overviewHow to use our weather pages